Back to catalog

STARLINK-37320

AliveCommunicationsVLEO
NORAD 68711·PAYLOAD·🇺🇸 United States

Launched Apr 14, 2026 from Cape Canaveral Space Force Station

Loading…

Next Passes (next 24 hours)

TLE

FreshSource: CelesTrak SupGP

Epoch: Sep 14, 2026, 22:44 UTC

1 68711C 26081N   26257.94770833  .00022621  00000+0  66819-3 0  2575
2 68711  53.1582 231.7425 0001368  94.5057 319.1651 15.34386671    12

Track STARLINK-37320 in real time with AllMySat

Download on the App Store